Погода в Сенгилеевском

Россия / Ставропольский край     45°02′46″N   41°36′45″E
темп.,
°C
ветер,
м/с
пор.,
м/с
влажн.,
%
обл.,
%
осадки,
мм/ч
давл.,
гПа
погр.,
м
9 мая, вс
вс900:00+14ююв347886 0.0 100958
03:00+14з31083100 0.3 1010231
06:00+12зсз3985100 0.1 1011312
09:00+12зсз51296100 1.5 1010756
12:00+9зсз7996100 4.8 1013903
15:00+6зсз81194100 11.1 1018962
18:00+7з4896100 2.3 1020765
21:00+6з5119683 3.1 1022504
10 мая, пн
пн1000:00+5зюз512955 0.3 1023357
03:00+4зюз5129163 0.4 1023325
06:00+4зюз411925 0.1 1023421
09:00+9з7106924 0.2 10221415
12:00+11з8105873 0.4 10201872
15:00+10зсз10126697 1.3 10191745
18:00+8з71485100 0.6 10201215
21:00+6зюз71490100 0.6 1019877
11 мая, вт
вт1100:00+6зюз81683100 0.1 1017923
03:00+6зюз91789100 1.0 10161160
06:00+5ю51086100 1.0 1017397
09:00+7ююв4775100 1.4 1017392
12:00+10ююв6964100 0.0 1017982
15:00+12юв4563100 0.1 10181081
18:00+11с2377100 0.1 1018238
21:00+7с3691100 0.1 1019224
12 мая, ср
ср1200:00+7св489547 0.0 1018262
03:00+4всв229825 0.0 101844
06:00+6юв129267 0.0 101873
09:00+13вюв36690 0.0 1017675
12:00+17вюв67590 0.0 10161252
15:00+19вюв56585 0.0 10161343
18:00+17вюв58720 0.0 1015429
21:00+11в33860 0.0 101532
13 мая, чт
чт1300:00+10вюв33870 0.0 101531
03:00+9юв36911 0.0 101586
06:00+10юв36900 0.0 1015131
09:00+18юв476911 0.0 1014418
12:00+22вюв675982 0.0 1013678
15:00+23вюв686171 0.0 1013790
18:00+20вюв71473100 0.0 1013582
21:00+16вюв367433 0.0 1014130